User: anonymous   Login
Location: Fontevrault
(47.1823°N, 0.0493°E)
Time: 16:46:44
(UTC+00:00)
Language:

Cosmos 1707 - Orbit

View from above orbital plane
View from above orbital plane
View from above satellite
View from above satellite

Ground track
Ground track

The orbit data is extracted from the following two-line orbital elements,

1 16326U 85113A   21262.85921978  .00000532  00000-0  26952-4 0  9996
2 16326  82.5087 118.3010 0009537 331.7652  28.3062 15.14825913952731
Epoch (UTC): 19 September 2021 20:37:16
Eccentricity: 0.0009537
inclination: 82.5087°
perigee height: 515 km
apogee height: 528 km
right ascension of ascending node: 118.3010°
argument of perigee: 331.7652°
revolutions per day: 15.14825913
mean anomaly at epoch: 28.3062°
orbit number at epoch: 95273

The dashed part of the orbit path shows where the satellite is in the earth's shadow,  

DLR